Flag for Germany Weather past 2 weeks in Freiburg, Baden-Württemberg, Germany

Now
36 °F

Clear.


Feels Like: 32 °F
Forecast: 33 / 48 °F
Wind: 5 mph from South

Location: Freiburg

Current Time: Mar 3, 2015 at 12:51:04 AM

Latest Report: Mar 3, 2015 at 12:00 AM


Visibility: 41 mi

Pressure: 30.24 "Hg

Humidity: 76%

Dew point: 29 °F

Location of FreiburgLocation

Historic Weather in Freiburg — Graph

°F

Freiburg temperature yesterday

Maximum temperature yesterday: 52 °F (at 12:00 AM)
Minimum temperature yesterday: 38 °F (at 11:00 PM)
Average temperature yesterday: 47 °F

Past Weeks' High & Low Weather Summary

 TemperatureHumidityPressure
High56 °F (Feb 20, 5:00 PM)99% (Feb 17, 2:00 AM)30.71 "Hg (Feb 17, 2:00 AM)
Low25 °F (Feb 20, 2:00 AM)27% (Feb 20, 8:00 PM)29.56 "Hg (Feb 23, 5:00 PM)
Average40 °F79%30.02 "Hg
* Reported Midnight between Feb 15 and Feb 16 — Midnight between Mar 2 and Mar 3, Freiburg, Weather by CustomWeather, © 2015

Note: Actual official high and low records may vary slightly from our data, if they occured in-between our weather recording intervals... More about our weather records

Advertising

Freiburg weather history for previous 24 hours

 ConditionsComfort  
Time TempWeatherWind HumidityBarometerVisibility
12:00 AM
Tue, Mar 3
36 °FClear.5 mph76%30.24 "Hg40 mi
11:00 PM
Mon, Mar 2
38 °FClear.3 mph72%30.22 "Hg43 mi
9:00 PM40 °FPassing clouds.3 mph78%30.16 "Hg43 mi
8:00 PM40 °FOvercast.5 mph86%30.11 "Hg43 mi
6:00 PM47 °FOvercast.6 mph67%29.98 "Hg43 mi
5:00 PM50 °FPartly sunny.7 mph56%29.94 "Hg40 mi
3:00 PM48 °FScattered clouds.5 mph71%29.92 "Hg31 mi
2:00 PM49 °FOvercast.9 mph71%29.88 "Hg25 mi
12:00 PM48 °FOvercast.7 mph66%29.88 "Hg43 mi
11:00 AM47 °FOvercast.3 mph69%29.86 "Hg43 mi
10:00 AM47 °FOvercast.5 mph66%29.85 "Hg43 mi
9:00 AM45 °FOvercast.7 mph74%29.84 "Hg43 mi
8:00 AM47 °FOvercast.5 mph82%29.78 "Hg43 mi
6:00 AM51 °FOvercast.7 mph81%29.72 "Hg43 mi
5:00 AM52 °FOvercast.8 mph78%29.72 "Hg43 mi
3:00 AM52 °FOvercast.9 mph88%29.72 "Hg43 mi
2:00 AM52 °FLight rain. Overcast.12 mph86%29.72 "Hg37 mi
12:00 AM52 °FOvercast.9 mph76%29.77 "Hg43 mi
Weather by CustomWeather, © 2015

See weather overviewHow to use our weather pages